Content
SEND FEEDBACK

Daily
Averages
Monthly
Summary
United States of America

ASHEVILLE, NORTH CAROLINA


Home > North America > United States > North Carolina
Elevation: 2240 feet     Latitude: 35 36N     Longitude: 082 32W

WEATHER
 
SELECT A DAY
Number of Records: 226,296;   Date Range: 1/1/95 - 8/30/14
 
SHARE

PRINT THIS DATA

[ ← Previous Day ]
WEATHER ALMANAC - JANUARY 20, 2013
[ Next Day → ]
[ °C ]   °F
Weather ElementAverageHighLow
Temperature42 °F55.9 °F (2:54 pm)28.9 °F (1:54 am)
Dewpoint27.7 °F30.9 °F (11:54 am)23 °F (5:54 am)
Humidity60.3 %92 % (2:54 am)36 % (2:54 pm)
Barometer30.11 in30.15 in (7:54 am)30.05 in (2:54 pm)
Wind Speed6 mph16.1 mph (1:54 pm)
Wind Gust21.9 mph (4:54 pm)
Weather ElementAverage
Visibility10 mi
Wind DirectionSW (228.7 °)

Weather ElementTotal
Precipitation---
Heating Degree Days22.6 (Base 65)
Averaged from 23 records on January 20, 2013
WEATHER CONDITIONS BREAKOUT
WIND DIRECTION BREAKOUT
WEATHER BY HOUR - JANUARY 20, 2013
[ °C ]   °F
Local TimeTemperatureDewpointHumidityBarometerVisibilityWind DirectionWind SpeedGust SpeedPrecipitationEventsConditions
1:54 AM28.9 °F26.1 °F89 %30.14 in10.0 miNW (320°)4.6 mphClear
2:54 AM28.9 °F27.0 °F92 %30.13 in10.0 miCalmClear
3:54 AM30.9 °F27.0 °F85 %30.13 in10.0 miNNW (340°)9.2 mphClear
4:54 AM30.0 °F26.1 °F85 %30.13 in10.0 miNNW (340°)6.9 mphClear
5:54 AM37.0 °F23.0 °F57 %30.11 in10.0 miNorth (360°)4.6 mphClear
6:54 AM32.0 °F24.1 °F73 %30.13 in10.0 miCalmClear
7:54 AM30.9 °F24.1 °F76 %30.15 in10.0 miCalmClear
8:54 AM41.0 °F26.1 °F55 %30.14 in10.0 miCalmClear
9:54 AM45.0 °F28.0 °F52 %30.14 in10.0 miNorth (360°)8.1 mphClear
10:54 AM48.9 °F30.0 °F48 %30.14 in10.0 miNorth (10°)6.9 mph16.1 mphClear
11:54 AM52.0 °F30.9 °F45 %30.11 in10.0 miNorth (360°)11.5 mphClear
12:54 PM53.1 °F30.9 °F43 %30.09 in10.0 miNorth (350°)11.5 mphClear
1:54 PM54.0 °F30.9 °F41 %30.07 in10.0 miNorth (350°)16.1 mphClear
2:54 PM55.9 °F28.9 °F36 %30.05 in10.0 miNorth (350°)8.1 mph17.3 mphClear
3:54 PM55.4 °F28.4 °F36 %30.05 in10.0 miNorth (360°)11.5 mphClear
4:54 PM53.1 °F27.0 °F37 %30.08 in10.0 miNorth (360°)12.7 mph21.9 mphClear
5:54 PM50.0 °F28.0 °F43 %30.09 in10.0 miNorth (360°)6.9 mphClear
6:54 PM46.9 °F28.9 °F50 %30.11 in10.0 miNorth (350°)5.8 mphClear
7:54 PM44.1 °F28.9 °F55 %30.12 in10.0 miNorth (350°)4.6 mphClear
8:54 PM39.0 °F28.9 °F67 %30.12 in10.0 miNNW (340°)8.1 mphClear
9:54 PM37.9 °F28.0 °F68 %30.12 in10.0 miCalmClear
10:54 PM36.0 °F28.0 °F73 %30.11 in10.0 miCalmClear
11:54 PM34.0 °F28.9 °F82 %30.10 in10.0 miCalmClear
Hourly data recorded from KAVL, located miles away from Asheville, North Carolina







STORIES FROM OUR PARTNERS